TimeEST,TemperatureF,Dew PointF,Humidity,Sea Level PressureIn,VisibilityMPH,Wind Direction,Wind SpeedMPH,Gust SpeedMPH,PrecipitationIn,Events,Conditions,WindDirDegrees,DateUTC
12:53 AM,52.0,41.0,66,29.55,10.0,SW,10.4,-,N/A,,Clear,230,2011-11-14 05:53:00
1:53 AM,50.0,41.0,71,29.57,10.0,SW,13.8,-,N/A,,Clear,230,2011-11-14 06:53:00
2:53 AM,48.0,39.9,74,29.57,10.0,SSW,9.2,-,N/A,,Clear,210,2011-11-14 07:53:00
3:53 AM,48.0,39.0,71,29.58,10.0,SW,12.7,-,N/A,,Clear,220,2011-11-14 08:53:00
4:53 AM,48.0,39.0,71,29.60,10.0,SW,19.6,-,N/A,,Clear,230,2011-11-14 09:53:00
5:53 AM,46.9,37.9,71,29.62,10.0,SW,16.1,-,N/A,,Clear,230,2011-11-14 10:53:00
6:53 AM,44.6,37.4,76,29.62,10.0,SW,10.4,-,N/A,,Clear,230,2011-11-14 11:53:00
7:53 AM,45.0,37.9,76,29.65,10.0,WSW,11.5,-,N/A,,Clear,240,2011-11-14 12:53:00
8:53 AM,44.1,37.9,79,29.67,10.0,SSW,9.2,-,N/A,,Clear,210,2011-11-14 13:53:00
9:53 AM,46.0,39.0,76,29.68,10.0,SSW,6.9,-,N/A,,Clear,210,2011-11-14 14:53:00
10:53 AM,48.0,39.9,74,29.68,10.0,SW,9.2,-,N/A,,Clear,230,2011-11-14 15:53:00
11:53 AM,48.9,39.0,69,29.64,10.0,Calm,Calm,-,N/A,,Mostly Cloudy,0,2011-11-14 16:53:00
12:53 PM,48.9,39.0,69,29.63,10.0,Calm,Calm,-,N/A,,Overcast,0,2011-11-14 17:53:00
1:53 PM,48.9,39.0,69,29.64,10.0,Calm,Calm,-,N/A,,Overcast,0,2011-11-14 18:53:00
2:53 PM,48.9,41.0,74,29.62,10.0,Calm,Calm,-,0.00,Rain,Light Rain,0,2011-11-14 19:53:00
3:53 PM,48.9,41.0,74,29.60,10.0,Calm,Calm,-,0.00,,Overcast,0,2011-11-14 20:53:00
4:53 PM,48.0,41.0,77,29.60,10.0,Calm,Calm,-,0.00,,Overcast,0,2011-11-14 21:53:00
5:53 PM,44.1,39.9,85,29.60,10.0,Calm,Calm,-,N/A,,Partly Cloudy,0,2011-11-14 22:53:00
6:53 PM,41.0,37.9,89,29.62,10.0,Calm,Calm,-,N/A,,Clear,0,2011-11-14 23:53:00
7:53 PM,43.0,39.0,86,29.62,10.0,SSW,5.8,-,N/A,,Clear,200,2011-11-15 00:53:00
8:53 PM,42.1,37.9,85,29.65,10.0,SSW,5.8,-,N/A,,Clear,210,2011-11-15 01:53:00
9:53 PM,42.1,37.0,82,29.66,10.0,SSW,5.8,-,N/A,,Clear,210,2011-11-15 02:53:00
10:53 PM,42.1,37.9,85,29.68,10.0,SW,6.9,-,N/A,,Clear,220,2011-11-15 03:53:00
11:53 PM,43.0,39.0,86,29.68,10.0,SSW,5.8,-,N/A,,Clear,210,2011-11-15 04:53:00